Location: Newark
(44.9333°N, 0.5667°E)
Time: 06:47:44
(UTC+00:00)

N. Korean satellite - Pass Details

Date: 21 December 2019
Orbit: 454 x 508 km, 97.2° (Epoch: 20 January)

Event Time Altitude Azimuth Distance (km) Brightness Sun altitude
Rises 17:10:57 0° 176° (S) 2,581 10.5 -8.9°
Reaches altitude 10° 17:13:04 10° 181° (S) 1,696 9.7 -9.2°
Maximum altitude 17:16:40 56° 260° (W) 596 7.4 -9.8°
Drops below altitude 10° 17:20:14 10° 339° (NNW) 1,683 9.3 -10.4°
Sets 17:22:19 0° 344° (NNW) 2,560 10.2 -10.7°
